Regional Weather Roundup
Issued by NWS Albany, NY

Home | Current Version | Previous Version | Text Only | Print | Product List | Glossary On
Versions: 1 2 3 4 5 6 7 8 9 10 11 12 13 14 15 16 17 18 19 20 21 22 23 24 25 26 27 28 29 30 31 32 33 34 35 36 37 38 39 40 41 42 43 44 45 46 47 48 49 50
000
ASUS41 KALY 301910
RWRALY

NEW YORK STATE HOURLY WEATHER ROUNDUP
NATIONAL WEATHER SERVICE ALBANY NY
300 PM EDT MON MAY 30 2016

NOTE: "FAIR" INDICATES FEW OR NO CLOUDS BELOW 12,000 FEET WITH NO
SIGNIFICANT WEATHER AND/OR NO OBSTRUCTIONS TO VISIBILITY.

NYZ032-033-038>043-046>054-057>066-NYZ062>081-082-084-302000-
EAST


CITY           SKY/WX    TMP DP  RH WIND       PRES   REMARKS
ALBANY         MOSUNNY   83  65  54 S9        29.88F
GLENS FALLS    MOSUNNY   83  66  56 S10G22    29.85F
POUGHKEEPSIE   MOSUNNY   82  65  56 S6        29.91F
NEWBURGH       MOSUNNY   81  66  61 SW6       29.94F
MONTGOMERY     PTSUNNY   82  69  64 S10       29.92F
WHITE PLAINS   MOSUNNY   79  66  64 CALM      29.95S
ISLIP          FOG       70  67  90 SW9       29.97S VSB 1
NEW YORK CITY  PTSUNNY   80  73  79 S14       29.94F
CENTRAL PARK   PTSUNNY   79  67  66 W6        29.97F
$$

NYZ005>009-017-018-044>046-055-056-302000-
CENTRAL


CITY           SKY/WX    TMP DP  RH WIND       PRES   REMARKS
FULTON         SUNNY     84  61  45 W13       29.91R
SYRACUSE       PTSUNNY   83  60  45 W15G22    29.89S
ROME           SUNNY     82  59  45 W16G23    29.90S
ELMIRA         MOSUNNY   86  58  38 NW13G22   29.91S
BINGHAMTON     MOSUNNY   77  60  55 W8        29.95S
MONTICELLO     MOSUNNY   81  64  57 W8        29.97F
$$

NYZ026>034-041>043-087-302000-
NORTH


CITY           SKY/WX    TMP DP  RH WIND       PRES   REMARKS
WATERTOWN      SUNNY     77  58  51 W14G28    29.89S
FORT DRUM      NOT AVBL
MASSENA        MOSUNNY   83  59  44 SW17G32   29.81S
SARANAC LAKE   MOSUNNY   80  49  33 W17G25    29.86S
PLATTSBURGH    MOSUNNY   83  68  60 VRB6      29.77F
$$

NYZ001>004-010>016-019>021-085-302000-
WEST


CITY           SKY/WX    TMP DP  RH WIND       PRES   REMARKS
NIAGARA FALLS  PTSUNNY   79  58  48 SW14G23   29.93R
BUFFALO        PTSUNNY   77  58  51 SW21G31   29.95S
DUNKIRK        PTSUNNY   79  57  46 SW14G21   29.98S
JAMESTOWN      SUNNY     73  54  49 SW12      30.03S
WELLSVILLE     MOSUNNY   77  54  44 NW14G22   30.01F
ROCHESTER      PTSUNNY   82  60  47 NW10      29.92S
PENN YAN       MOSUNNY   81  56  42 W13G21    29.94S
$$

             KEY
       WCI = WIND CHILL INDEX
       VSB = VISIBILITY
       HX  = HEAT INDEX
$$



USA.gov is the U.S. government's official web portal to all federal, state and local government web resources and services.